Simultaneous Nadir Overpasses (SNOs) Predictions

Prediction of SNOs between FY3D and AQUA Satellite Orbit:

Table of predicted SNOs for the next 14.0 days since TLE Epoch: 7/12/2025
Index Date (FY3D) Time (FY3D) Lat,Lon (FY3D) SZA (FY3D ) Date (AQUA) Time (AQUA) Lat,Lon (AQUA) SZA (AQUA ) Distance(km) Time Diff (sec)
1 07/12/2025 22:56:37 79.79,-177.62 58.28 07/12/2025 22:57:50 79.80,-177.42 58.27 4.18 73
2 07/12/2025 23:47:09 -79.40, -6.69 122.25 07/12/2025 23:46:57 -79.41, -6.80 122.24 2.38 12
3 07/15/2025 09:17:53 -79.47,-149.88 121.80 07/15/2025 09:17:54 -79.47,-149.89 121.80 0.52 1
4 07/17/2025 18:48:35 -79.47, 67.47 121.39 07/17/2025 18:48:49 -79.47, 67.43 121.39 0.66 14
5 07/17/2025 19:39:14 79.29,-123.64 58.38 07/17/2025 19:38:02 79.28,-123.56 58.38 1.66 72
6 07/20/2025 04:19:17 -79.48, -75.21 120.95 07/20/2025 04:19:44 -79.49, -75.34 120.94 2.87 27
7 07/20/2025 05:09:55 79.26, 93.96 58.78 07/20/2025 05:08:56 79.26, 93.91 58.79 1.02 59
8 07/22/2025 13:50:01 -79.55, 141.54 120.38 07/22/2025 13:50:40 -79.56, 141.51 120.39 0.82 39
9 07/22/2025 14:40:39 79.34, -49.26 59.34 07/22/2025 14:39:52 79.33, -49.23 59.34 0.73 47
10 07/24/2025 23:20:43 -79.56, -1.17 119.87 07/24/2025 23:21:34 -79.56, -1.21 119.88 0.83 51



Historial Predications of SNOs between FY3D and AQUA
